Minot, ND

6:47 AM CDT on May 25, 2018 (GMT -0500)
Minot International

Weather History for KMOT - September, 2013

Change the Weather History Date:

Friday, September 13, 2013

  Actual Average Record
Temperature  
Mean Temperature 66 °F 59 °F  
Max Temperature 83 °F 71 °F 95 °F (1927)
Min Temperature 48 °F 47 °F 23 °F (1923)
Degree Days  
Heating Degree Days 0 7  
Month to date heating degree days 8 70  
Since 1 July heating degree days 77 141  
Cooling Degree Days 1 1  
Month to date cooling degree days 46 22  
Year to date cooling degree days 417 433  
Growing Degree Days 15 (Base 50)    
Moisture  
Dew Point 49 °F    
Average Humidity 64    
Maximum Humidity 93    
Minimum Humidity 34    
Precipitation  
Precipitation 0.00 in 0.04 in 1.53 in (1954)
Month to date precipitation 1.07 0.65  
Year to date precipitation 21.25 14.09  
Sea Level Pressure  
Sea Level Pressure 30.00 in    
Wind  
Wind Speed 10 mph (SSE)    
Max Wind Speed 22 mph    
Max Gust Speed 29 mph    
Visibility 10 miles    
Events      
T = Trace of Precipitation, MM = Missing Value Source: NWS Daily Summary

Daily Weather History Graph

Daily Weather History Graph

Search for Another Location

Airport or City:

Astronomy

Sep. 13, 2013 Rise Set
Actual Time 7:19 AM CDT 8:01 PM CDT
Civil Twilight 6:48 AM CDT 8:32 PM CDT
Nautical Twilight 6:10 AM CDT 9:09 PM CDT
Astronomical Twilight 5:31 AM CDT 9:49 PM CDT
Moon 4:12 PM CDT (9/13) 12:30 AM CDT (9/13)
Length of Visible Light 13h 44m
Length of Day
12h 41m
First Quarter, 61% of the Moon is Illuminated
Sep 13
First Quarter
Sep 19
Full
Sep 26
Last Quarter
Oct 4
New
Oct 11
First Quarter

Hourly Weather History & Observations

Time (CDT) Temp. Heat Index Dew Point Humidity Pressure Visibility Wind Dir Wind Speed Gust Speed Precip Events Conditions
12:54 AM 52.0 °F - 46.9 °F 83% 30.20 in 10.0 mi SSE 3.5 mph - N/A   Clear
1:54 AM 51.1 °F - 46.9 °F 86% 30.19 in 10.0 mi SE 5.8 mph - N/A   Clear
2:54 AM 51.1 °F - 46.9 °F 86% 30.18 in 10.0 mi SE 3.5 mph - N/A   Clear
3:54 AM 50.0 °F - 46.9 °F 89% 30.17 in 10.0 mi SE 4.6 mph - N/A   Clear
4:54 AM 48.9 °F - 46.0 °F 90% 30.15 in 10.0 mi Calm Calm - N/A   Clear
5:54 AM 48.9 °F - 46.0 °F 90% 30.14 in 10.0 mi ESE 4.6 mph - N/A   Clear
6:54 AM 48.9 °F - 46.0 °F 90% 30.12 in 10.0 mi SE 3.5 mph - N/A   Clear
7:54 AM 50.0 °F - 46.9 °F 89% 30.10 in 10.0 mi Calm Calm - N/A   Clear
8:54 AM 57.0 °F - 50.0 °F 77% 30.08 in 10.0 mi SSE 3.5 mph - N/A   Clear
9:54 AM 66.9 °F - 50.0 °F 54% 30.06 in 10.0 mi South 8.1 mph - N/A   Clear
10:54 AM 71.1 °F - 46.9 °F 42% 30.04 in 10.0 mi South 16.1 mph - N/A   Clear
11:54 AM 75.0 °F - 48.0 °F 38% 30.01 in 10.0 mi South 13.8 mph 23.0 mph N/A   Clear
12:54 PM 77.0 °F - 50.0 °F 39% 29.98 in 10.0 mi South 21.9 mph 28.8 mph N/A   Clear
1:54 PM 79.0 °F - 52.0 °F 39% 29.95 in 10.0 mi South 17.3 mph 24.2 mph N/A   Clear
2:54 PM 81.0 °F 80.4 °F 53.1 °F 38% 29.93 in 10.0 mi South 19.6 mph 25.3 mph N/A   Clear
3:54 PM 81.0 °F 80.4 °F 53.1 °F 38% 29.91 in 10.0 mi South 16.1 mph - N/A   Clear
4:54 PM 82.0 °F 81.2 °F 53.1 °F 37% 29.88 in 10.0 mi South 12.7 mph 19.6 mph N/A   Clear
5:54 PM 82.0 °F - 52.0 °F 35% 29.87 in 10.0 mi South 11.5 mph 21.9 mph N/A   Clear
6:54 PM 79.0 °F - 52.0 °F 39% 29.85 in 10.0 mi South 12.7 mph - N/A   Clear
7:54 PM 75.0 °F - 51.1 °F 43% 29.85 in 10.0 mi South 10.4 mph - N/A   Clear
8:54 PM 71.1 °F - 51.1 °F 49% 29.85 in 10.0 mi SSE 9.2 mph - N/A   Clear
9:54 PM 64.9 °F - 51.1 °F 61% 29.84 in 10.0 mi SE 6.9 mph - N/A   Clear
10:54 PM 64.9 °F - 50.0 °F 58% 29.82 in 10.0 mi SE 4.6 mph - N/A   Clear
11:54 PM 66.9 °F - 48.0 °F 51% 29.81 in 10.0 mi SSE 10.4 mph - N/A   Clear